User: anonymous   Login
Location: Unspecified
(0.0000°N, 0.0000°E)
Time: 21:59:53
(UTC+00:00)
Language:

OBJECT A - Orbit

View from above orbital plane
View from above orbital plane
View from above satellite
View from above satellite

Ground track
Ground track

The orbit data is extracted from the following two-line orbital elements,

1 41783U 16059A   17082.86432636 +.00000079 +00000-0 +24849-4 0  9997
2 41783 098.1771 145.0774 0034855 069.4192 291.0744 14.62814394026122
Epoch (UTC): 23 March 2017 20:44:37
Eccentricity: 0.0034855
inclination: 98.1771°
perigee height: 659 km
apogee height: 709 km
right ascension of ascending node: 145.0774°
argument of perigee: 69.4192°
revolutions per day: 14.62814394
mean anomaly at epoch: 291.0744°
orbit number at epoch: 2612

The dashed part of the orbit path shows where the satellite is in the earth's shadow,  

DLR